Radiation Dose at Monitoring Post of Fukushima Daini Nuclear Power Station
Date,Time,MP-1(microSv/h),MP-2(microSv/h),MP-3(microSv/h),MP-4(microSv/h),MP-5(microSv/h),MP-6(microSv/h),MP-7(microSv/h),Wind Direction,Wind Velocity(m/s),Rain
2015/10/29,00:00,0.517,0.293,0.539,0.498,0.462,0.243,0.212,north,4.2,No
2015/10/29,00:10,0.520,0.295,0.544,0.497,0.460,0.242,0.214,north-northwest,3.4,Yes
2015/10/29,00:20,0.516,0.293,0.538,0.500,0.463,0.242,0.212,north-northwest,3.4,Yes
2015/10/29,00:30,0.519,0.294,0.542,0.495,0.459,0.243,0.213,north-northwest,3.9,No
2015/10/29,00:40,0.516,0.295,0.536,0.501,0.463,0.243,0.213,north,4.5,No
2015/10/29,00:50,0.520,0.294,0.545,0.497,0.457,0.243,0.213,north-northwest,3.8,No
2015/10/29,01:00,0.516,0.294,0.539,0.499,0.462,0.242,0.213,north,4.0,No
2015/10/29,01:10,0.519,0.292,0.544,0.495,0.459,0.242,0.212,north,4.3,No
2015/10/29,01:20,0.517,0.293,0.540,0.499,0.462,0.243,0.213,north,3.9,No
2015/10/29,01:30,0.522,0.292,0.543,0.495,0.458,0.242,0.212,north,3.3,No
2015/10/29,01:40,0.518,0.295,0.539,0.498,0.462,0.242,0.213,north,3.7,No
2015/10/29,01:50,0.520,0.292,0.543,0.495,0.460,0.241,0.212,north,3.5,Yes
2015/10/29,02:00,0.517,0.295,0.539,0.499,0.461,0.243,0.213,north,3.3,Yes
2015/10/29,02:10,0.522,0.292,0.543,0.494,0.459,0.242,0.213,north,2.9,Yes
2015/10/29,02:20,0.519,0.295,0.539,0.499,0.459,0.242,0.211,north,3.6,Yes
2015/10/29,02:30,0.521,0.293,0.544,0.496,0.461,0.243,0.213,north,3.1,Yes
2015/10/29,02:40,0.516,0.295,0.538,0.500,0.461,0.244,0.212,north-northwest,2.5,Yes
2015/10/29,02:50,0.521,0.294,0.543,0.497,0.463,0.244,0.212,north-northwest,2.0,Yes
2015/10/29,03:00,0.519,0.297,0.541,0.499,0.460,0.243,0.215,north-northwest,2.1,Yes
2015/10/29,03:10,0.525,0.297,0.546,0.497,0.467,0.247,0.215,northwest,2.4,Yes
2015/10/29,03:20,0.519,0.297,0.543,0.501,0.461,0.246,0.217,northwest,1.9,Yes
2015/10/29,03:30,0.525,0.299,0.547,0.501,0.466,0.247,0.216,north-northwest,1.5,Yes
2015/10/29,03:40,0.520,0.296,0.543,0.498,0.461,0.246,0.216,northwest,0.9,No
2015/10/29,03:50,0.524,0.298,0.545,0.502,0.462,0.246,0.214,-,CALM,Yes
2015/10/29,04:00,0.519,0.295,0.542,0.497,0.462,0.246,0.214,west-northwest,0.6,Yes
2015/10/29,04:10,0.521,0.296,0.541,0.499,0.460,0.244,0.214,southwest,0.6,No
2015/10/29,04:20,0.518,0.295,0.543,0.495,0.461,0.245,0.214,south-southeast,1.0,No
2015/10/29,04:30,0.519,0.295,0.539,0.497,0.459,0.244,0.212,southwest,1.5,Yes
2015/10/29,04:40,0.519,0.296,0.542,0.495,0.462,0.246,0.213,west,0.6,Yes
2015/10/29,04:50,0.518,0.294,0.538,0.496,0.459,0.245,0.214,-,CALM,Yes
2015/10/29,05:00,0.519,0.295,0.543,0.496,0.460,0.244,0.213,-,CALM,No
2015/10/29,05:10,0.516,0.295,0.539,0.494,0.458,0.243,0.213,northwest,0.5,No
2015/10/29,05:20,0.519,0.293,0.541,0.496,0.457,0.242,0.212,south-southwest,1.4,No
2015/10/29,05:30,0.516,0.295,0.537,0.492,0.457,0.242,0.212,south-southwest,1.1,No
2015/10/29,05:40,0.520,0.292,0.541,0.495,0.457,0.241,0.212,south-southwest,1.6,No
2015/10/29,05:50,0.515,0.294,0.538,0.491,0.458,0.242,0.210,south-southwest,2.3,Yes
2015/10/29,06:00,0.519,0.293,0.538,0.494,0.457,0.242,0.212,south-southwest,2.5,Yes
2015/10/29,06:10,0.514,0.295,0.541,0.494,0.460,0.242,0.213,south,1.8,Yes
2015/10/29,06:20,0.519,0.293,0.537,0.492,0.456,0.243,0.211,south-southwest,2.5,No
2015/10/29,06:30,0.517,0.293,0.541,0.495,0.457,0.241,0.212,south-southwest,3.0,Yes
2015/10/29,06:40,0.515,0.293,0.536,0.492,0.459,0.242,0.211,south-southwest,2.8,Yes
2015/10/29,06:50,0.516,0.292,0.540,0.495,0.456,0.241,0.211,southwest,2.4,No
2015/10/29,07:00,0.513,0.295,0.536,0.491,0.460,0.241,0.211,southwest,1.6,No
2015/10/29,07:10,0.518,0.291,0.540,0.495,0.455,0.242,0.210,south-southwest,2.8,No
2015/10/29,07:20,0.514,0.292,0.535,0.489,0.458,0.241,0.211,south-southwest,3.3,No
2015/10/29,07:30,0.517,0.292,0.537,0.495,0.453,0.240,0.210,southwest,2.9,Yes
2015/10/29,07:40,0.512,0.291,0.537,0.491,0.457,0.240,0.210,west-southwest,0.9,Yes
2015/10/29,07:50,0.517,0.293,0.538,0.489,0.454,0.240,0.209,northwest,0.6,No
2015/10/29,08:00,0.512,0.290,0.535,0.491,0.458,0.240,0.209,northwest,0.5,No
2015/10/29,08:10,0.516,0.293,0.537,0.489,0.455,0.240,0.211,south-southwest,0.7,No
2015/10/29,08:20,0.513,0.290,0.536,0.492,0.457,0.239,0.210,north-northwest,1.0,Yes
2015/10/29,08:30,0.515,0.292,0.536,0.491,0.455,0.240,0.209,north-northwest,1.8,Yes
2015/10/29,08:40,0.514,0.291,0.539,0.492,0.457,0.239,0.210,northwest,1.9,No
2015/10/29,08:50,0.516,0.293,0.534,0.489,0.456,0.240,0.209,north-northeast,1.3,No
2015/10/29,09:00,0.513,0.289,0.539,0.494,0.455,0.240,0.210,north-northwest,1.9,No
2015/10/29,09:10,0.518,0.292,0.536,0.488,0.455,0.241,0.209,north-northwest,3.3,No
2015/10/29,09:20,0.514,0.290,0.537,0.492,0.456,0.239,0.210,north-northwest,3.6,No
2015/10/29,09:30,0.516,0.293,0.535,0.490,0.455,0.241,0.209,north,2.6,No
2015/10/29,09:40,0.513,0.291,0.537,0.493,0.456,0.240,0.211,north-northeast,1.9,No
2015/10/29,09:50,0.515,0.292,0.535,0.491,0.456,0.240,0.209,east-southeast,0.8,No
2015/10/29,10:00,0.513,0.291,0.538,0.494,0.455,0.240,0.210,east-southeast,1.3,No
2015/10/29,10:10,0.517,0.291,0.536,0.491,0.456,0.240,0.210,southeast,1.2,Yes
2015/10/29,10:20,0.511,0.290,0.537,0.492,0.457,0.239,0.209,south-southeast,0.8,Yes
2015/10/29,10:30,0.518,0.292,0.535,0.490,0.453,0.240,0.210,south-southeast,1.5,No
2015/10/29,10:40,0.511,0.290,0.538,0.493,0.455,0.239,0.210,south-southeast,1.6,No
2015/10/29,10:50,0.516,0.292,0.535,0.489,0.453,0.239,0.210,south,1.6,No
2015/10/29,11:00,0.512,0.290,0.538,0.493,0.456,0.239,0.209,south-southeast,2.4,No
2015/10/29,11:10,0.516,0.292,0.535,0.490,0.452,0.239,0.210,south-southeast,3.1,No
2015/10/29,11:20,0.513,0.289,0.536,0.491,0.458,0.239,0.209,south,3.4,No
2015/10/29,11:30,0.512,0.292,0.536,0.493,0.454,0.239,0.210,south-southeast,3.1,No
2015/10/29,11:40,0.517,0.291,0.534,0.488,0.459,0.240,0.209,south,3.5,No
2015/10/29,11:50,0.513,0.293,0.537,0.494,0.453,0.239,0.209,south,4.7,No
2015/10/29,12:00,0.517,0.292,0.535,0.490,0.457,0.241,0.208,south-southeast,4.1,No
2015/10/29,12:10,0.511,0.292,0.539,0.494,0.455,0.240,0.211,south-southeast,3.6,No
2015/10/29,12:20,0.518,0.291,0.535,0.490,0.457,0.241,0.209,south-southeast,4.6,No
2015/10/29,12:30,0.512,0.290,0.538,0.494,0.456,0.239,0.211,south,5.0,No
2015/10/29,12:40,0.515,0.291,0.534,0.491,0.455,0.239,0.210,south,4.7,No
2015/10/29,12:50,0.513,0.290,0.538,0.493,0.458,0.240,0.211,south,4.5,No
2015/10/29,13:00,0.515,0.292,0.535,0.491,0.454,0.240,0.209,south,5.6,No
2015/10/29,13:10,0.518,0.290,0.535,0.492,0.458,0.242,0.210,south-southwest,5.2,No
2015/10/29,13:20,0.511,0.293,0.540,0.493,0.455,0.240,0.209,south-southwest,6.3,No
2015/10/29,13:30,0.516,0.292,0.535,0.487,0.452,0.242,0.209,south,5.5,No
2015/10/29,13:40,0.512,0.290,0.535,0.492,0.458,0.241,0.210,south,5.7,No
2015/10/29,13:50,0.517,0.292,0.537,0.492,0.453,0.241,0.209,south,5.2,No
2015/10/29,14:00,0.515,0.290,0.534,0.490,0.458,0.240,0.210,south,5.5,No
2015/10/29,14:10,0.515,0.291,0.540,0.496,0.455,0.240,0.210,south,5.4,No
2015/10/29,14:20,0.517,0.291,0.535,0.491,0.458,0.240,0.211,south,5.7,No
2015/10/29,14:30,0.515,0.289,0.542,0.496,0.458,0.239,0.211,south-southeast,5.4,No
2015/10/29,14:40,0.517,0.293,0.537,0.492,0.454,0.240,0.211,south,5.6,No
2015/10/29,14:50,0.514,0.291,0.539,0.495,0.461,0.242,0.210,south-southeast,5.4,No
2015/10/29,15:00,0.518,0.292,0.536,0.491,0.456,0.240,0.212,south-southeast,4.9,No
2015/10/29,15:10,0.513,0.291,0.539,0.496,0.461,0.241,0.210,south-southeast,4.4,No
2015/10/29,15:20,0.519,0.293,0.539,0.493,0.456,0.241,0.211,south,5.2,No
2015/10/29,15:30,0.514,0.291,0.538,0.495,0.462,0.241,0.210,south-southeast,4.8,No
2015/10/29,15:40,0.519,0.293,0.539,0.494,0.456,0.241,0.210,south,4.9,No
2015/10/29,15:50,0.513,0.290,0.537,0.494,0.460,0.238,0.210,south,4.6,No
2015/10/29,16:00,0.520,0.292,0.541,0.494,0.455,0.242,0.211,south,5.0,No
2015/10/29,16:10,0.515,0.291,0.537,0.495,0.460,0.241,0.212,south,5.1,No
2015/10/29,16:20,0.518,0.293,0.539,0.494,0.456,0.241,0.210,south,5.3,No
2015/10/29,16:30,0.514,0.289,0.537,0.495,0.460,0.241,0.211,south,5.6,No
2015/10/29,16:40,0.519,0.291,0.539,0.492,0.456,0.241,0.210,south,5.9,No
2015/10/29,16:50,0.512,0.291,0.537,0.495,0.460,0.241,0.211,south,5.9,No
2015/10/29,17:00,0.520,0.291,0.540,0.493,0.457,0.242,0.211,south-southwest,4.7,No
2015/10/29,17:10,0.515,0.291,0.539,0.496,0.458,0.241,0.210,south-southwest,5.2,No
2015/10/29,17:20,0.518,0.290,0.537,0.492,0.457,0.241,0.211,south-southwest,5.4,No
2015/10/29,17:30,0.516,0.292,0.539,0.495,0.457,0.240,0.211,south-southwest,4.6,No
2015/10/29,17:40,0.519,0.290,0.539,0.494,0.460,0.241,0.211,southwest,3.3,No
2015/10/29,17:50,0.514,0.292,0.538,0.497,0.457,0.241,0.212,southwest,2.3,No
2015/10/29,18:00,0.518,0.292,0.536,0.491,0.461,0.241,0.211,south-southwest,1.6,No
2015/10/29,18:10,0.518,0.291,0.542,0.496,0.456,0.243,0.212,south-southwest,1.7,No
2015/10/29,18:20,0.516,0.292,0.536,0.493,0.457,0.242,0.210,west-southwest,1.0,No
2015/10/29,18:30,0.518,0.291,0.541,0.492,0.458,0.242,0.212,west-northwest,1.1,No
2015/10/29,18:40,0.515,0.293,0.536,0.496,0.457,0.241,0.212,northwest,2.8,No
2015/10/29,18:50,0.519,0.291,0.540,0.492,0.456,0.242,0.210,west-northwest,2.6,No
2015/10/29,19:00,0.513,0.291,0.538,0.497,0.456,0.241,0.211,-,CALM,No
2015/10/29,19:10,0.519,0.292,0.539,0.492,0.459,0.242,0.211,-,CALM,No
2015/10/29,19:20,0.514,0.292,0.538,0.496,0.455,0.242,0.210,-,CALM,No
2015/10/29,19:30,0.517,0.292,0.537,0.493,0.457,0.241,0.211,-,CALM,No
2015/10/29,19:40,0.517,0.291,0.540,0.494,0.456,0.241,0.211,north-northwest,0.7,No
2015/10/29,19:50,0.515,0.292,0.537,0.496,0.456,0.241,0.210,west,0.7,No
2015/10/29,20:00,0.520,0.294,0.539,0.493,0.458,0.240,0.210,north-northwest,0.9,No
2015/10/29,20:10,0.515,0.291,0.535,0.495,0.455,0.240,0.210,north-northwest,1.0,No
2015/10/29,20:20,0.518,0.292,0.543,0.493,0.457,0.242,0.212,north,1.7,No
2015/10/29,20:30,0.514,0.291,0.536,0.495,0.453,0.241,0.210,north-northwest,2.1,No
2015/10/29,20:40,0.518,0.291,0.540,0.493,0.458,0.242,0.210,north,1.5,No
2015/10/29,20:50,0.515,0.292,0.537,0.494,0.456,0.240,0.211,north-northwest,1.3,Yes
2015/10/29,21:00,0.516,0.290,0.539,0.492,0.455,0.241,0.210,north,1.9,Yes
2015/10/29,21:10,0.515,0.292,0.540,0.493,0.458,0.241,0.212,north,2.2,No
2015/10/29,21:20,0.516,0.291,0.538,0.496,0.457,0.240,0.211,north,5.1,Yes
2015/10/29,21:30,0.516,0.292,0.540,0.492,0.459,0.242,0.211,north,5.2,Yes
2015/10/29,21:40,0.516,0.291,0.538,0.497,0.456,0.241,0.211,north,4.9,No
2015/10/29,21:50,0.517,0.291,0.541,0.491,0.460,0.241,0.211,north,5.1,No
2015/10/29,22:00,0.515,0.292,0.537,0.497,0.456,0.241,0.212,north-northwest,5.3,No
2015/10/29,22:10,0.519,0.290,0.541,0.492,0.459,0.242,0.211,north,5.4,No
2015/10/29,22:20,0.515,0.293,0.536,0.496,0.457,0.241,0.211,north,5.5,No
2015/10/29,22:30,0.518,0.290,0.541,0.493,0.461,0.240,0.212,north,5.6,No
2015/10/29,22:40,0.515,0.292,0.536,0.493,0.457,0.241,0.211,north,5.7,No
2015/10/29,22:50,0.519,0.290,0.541,0.492,0.459,0.243,0.211,north,5.3,No
2015/10/29,23:00,0.514,0.292,0.535,0.493,0.458,0.242,0.210,north,4.9,No
2015/10/29,23:10,0.518,0.292,0.540,0.495,0.455,0.239,0.210,north,5.0,No
2015/10/29,23:20,0.516,0.291,0.537,0.492,0.459,0.241,0.212,north,5.1,No
2015/10/29,23:30,0.519,0.292,0.539,0.494,0.456,0.241,0.210,north,5.8,No
2015/10/29,23:40,0.515,0.292,0.538,0.492,0.458,0.242,0.211,north,5.3,No
2015/10/29,23:50,0.518,0.292,0.539,0.497,0.456,0.241,0.211,north,4.6,No
